Location: Newark
(55.7167°N, 12.5667°E)
Time: 07:16:51
(UTC+00:00)

N. Korean satellite - Pass Details

Date: 10 December 2019
Orbit: 454 x 507 km, 97.2° (Epoch: 26 January)

Event Time Altitude Azimuth Distance (km) Brightness Sun altitude
Rises 04:57:15 0° 17° (NNE) 2,572 10.3 -19.4°
Reaches altitude 10° 04:59:24 10° 22° (NNE) 1,677 9.4 -19.1°
Maximum altitude 05:02:55 53° 100° (E) 599 7.3 -18.7°
Drops below altitude 10° 05:06:22 10° 178° (S) 1,632 9.4 -18.2°
Sets 05:08:25 0° 184° (S) 2,496 10.3 -17.9°
